[[{"header":{"parameterUnit":"m.s-1","parameterCategory":2,"la1":30.2991,"la2":30.254,"lo1":-89.0895,"lo2":-89.0444,"dy":0.0017,"dx":0.0017,"nx":28,"ny":28,"refTime":"2023-07-28T03:00:00:Z","depth":"0","parameterNumber":2,"parameterNumberName":"U-component_of_CURRENTS"},"data":[0,0,0,0,0,0,0,0,0,0,0,0,0,0,0,0,0,0,0,0,0,0,0,0,0,0,0,0,0,0,0,0,0,0,0,0,0,0,0,0,0,0,0,0,0,0,0,0,0,0,0,0,0,0,0,0,0,0,-0.3399,-0.3399,0,-0.3427,-0.3427,-0.3427,-0.344,-0.344,-0.3441,-0.3441,-0.3515,-0.3517,-0.3518,0,0,0,0,0,0,0,0,0,0,0,0,0,-0.3228,-0.3231,-0.3399,-0.34,-0.34,-0.3427,-0.3427,-0.3427,-0.3439,-0.344,-0.3441,-0.3441,-0.3515,-0.3517,-0.3519,0,0,0,0,0,0,0,0,0,0,0,0,0,-0.3279,-0.3233,-0.3398,-0.3414,-0.3416,-0.3427,-0.3427,-0.3427,-0.3439,-0.344,-0.3441,-0.3442,-0.3514,-0.3517,-0.3519,-0.3518,0,0,-0.3526,-0.3527,0,0,0,0,0,0,0,0,-0.3276,-0.3284,-0.3411,-0.3413,-0.3416,-0.3436,-0.3395,-0.3462,-0.3439,-0.3424,-0.3441,-0.3442,-0.3496,-0.35,-0.3495,-0.3521,-0.3525,-0.3526,-0.3527,-0.3528,-0.3529,0,0,0,0,0,0,0,-0.3273,-0.3282,-0.3404,-0.3412,-0.3415,-0.3377,-0.3385,-0.3406,-0.3452,-0.3426,-0.3428,-0.3441,-0.3497,-0.3492,-0.3497,-0.3526,-0.3526,-0.3528,-0.3529,-0.353,-0.3461,-0.3458,0,0,0,0,0,0,-0.3288,-0.328,-0.3403,-0.3405,-0.3353,-0.338,-0.339,-0.3424,-0.3451,-0.3457,-0.344,-0.3441,-0.3488,-0.3494,-0.35,-0.332,-0.3528,-0.353,-0.3532,-0.3464,-0.346,-0.3456,0,0,0,0,0,0,-0.3284,-0.3299,-0.3402,-0.3346,-0.3358,-0.3384,-0.3421,-0.3424,-0.343,-0.3462,-0.3468,-0.3445,-0.3489,-0.3497,-0.3492,-0.3331,-0.3531,-0.3534,-0.3468,-0.3463,-0.3458,-0.3077,0,0,0,0,0,0,-0.3279,-0.3298,-0.3312,-0.3348,-0.3362,-0.3363,-0.3421,-0.3424,-0.3438,-0.344,-0.3468,-0.3475,-0.349,-0.3488,-0.3494,-0.3337,-0.3535,-0.3472,-0.3465,-0.346,-0.3094,-0.306,-0.3031,0,0,0,0,0,-0.3273,-0.3252,-0.3314,-0.3328,-0.3387,-0.3361,-0.336,-0.3378,-0.3438,-0.3396,-0.3434,-0.3475,-0.3453,-0.3488,-0.3496,-0.3335,-0.3475,-0.3467,-0.346,-0.3108,-0.3067,-0.3032,0,0,0,0,0,0,-0.3156,-0.3255,-0.3321,-0.3329,-0.3342,-0.3364,-0.3331,-0.3383,-0.3383,-0.3395,-0.3453,-0.3458,-0.3373,-0.3452,-0.3489,-0.3309,-0.3464,-0.3458,-0.3193,-0.3155,-0.3124,-0.3021,-0.3537,0,0,0,0,0,-0.3155,-0.3181,-0.3253,-0.3252,-0.3263,-0.3317,-0.3315,-0.3335,-0.3352,-0.3354,-0.3377,-0.3396,-0.3347,-0.3337,-0.3327,-0.326,-0.3282,-0.3165,-0.3134,-0.3106,-0.3033,-0.2958,-0.2909,-0.3433,-0.3433,-0.3433,0,0,-0.3101,-0.3167,-0.3174,-0.3231,-0.3251,-0.3174,-0.3312,-0.329,-0.3187,-0.3364,-0.324,-0.3291,-0.3313,-0.3187,-0.3158,-0.3232,-0.2971,-0.3097,-0.3071,-0.3012,-0.2944,-0.2892,-0.2846,-0.3428,-0.3429,-0.3429,0,0,-0.2969,-0.3076,-0.3038,-0.3034,-0.3072,-0.3079,-0.3078,-0.3107,-0.3079,-0.3023,-0.307,-0.3025,-0.3036,-0.294,-0.2913,-0.2726,-0.2807,-0.2761,-0.2498,-0.2425,-0.2378,-0.2338,-0.2289,-0.2247,-0.2742,-0.2741,-0.274,0,-0.289,-0.2878,-0.3005,-0.2941,-0.2893,-0.3024,-0.2904,-0.2872,-0.288,-0.283,-0.2939,-0.2842,-0.2869,-0.2632,-0.2548,-0.2627,-0.2649,-0.2622,-0.2372,-0.2333,-0.2298,-0.2258,-0.2217,-0.2721,-0.2724,-0.2726,-0.2727,0,-0.272,-0.2692,-0.265,-0.2618,-0.2577,-0.2498,-0.2489,-0.2442,-0.2483,-0.2466,-0.2325,-0.2363,-0.2305,-0.2288,-0.2351,-0.2088,-0.2202,-0.2333,-0.2442,-0.222,-0.2196,-0.2159,-0.2694,-0.2701,-0.2707,-0.2711,0,0,-0.2526,-0.2535,-0.2504,-0.2452,-0.2402,-0.235,-0.2167,-0.2042,-0.1947,-0.1935,-0.1784,-0.166,-0.1755,-0.173,-0.1795,-0.1713,-0.1479,-0.1904,-0.1909,-0.1806,-0.1335,-0.1242,-0.1197,-0.1588,-0.158,-0.1574,-0.1412,0,-0.2326,-0.2194,-0.2208,-0.1985,-0.1902,-0.1916,-0.1745,-0.1655,-0.1634,-0.1533,-0.1506,-0.1427,-0.1515,-0.1528,-0.1415,-0.1505,-0.137,-0.1511,-0.1608,-0.1609,-0.1511,-0.1144,-0.0966,-0.079,-0.1377,-0.1371,-0.1367,0,-0.2095,-0.2057,-0.187,-0.1734,-0.1692,-0.1566,-0.1381,-0.1249,-0.1125,-0.112,-0.1014,-0.1087,-0.0902,-0.1098,-0.0946,-0.1057,-0.1109,-0.1176,-0.1176,-0.1181,-0.1442,-0.1116,-0.0704,-0.0753,-0.1313,-0.1317,-0.1321,0,-0.1916,-0.1763,-0.1636,-0.1583,-0.147,-0.1359,-0.1268,-0.1132,-0.1014,-0.0889,-0.0851,-0.0698,-0.0673,-0.0658,-0.0756,-0.0868,-0.0663,-0.0865,-0.0785,-0.0786,-0.0685,-0.0687,-0.0274,-0.0682,-0.0683,-0.0683,-0.0683,0,-0.1666,-0.1518,-0.1573,-0.149,-0.1303,-0.1258,-0.1038,-0.0945,-0.081,-0.0661,-0.0654,-0.0518,-0.0575,-0.0511,-0.0609,-0.0521,-0.0521,-0.0596,-0.0666,-0.0553,-0.0545,-0.0641,-0.0781,-0.0677,-0.0678,-0.068,-0.0681,0,-0.1412,-0.1459,-0.1318,-0.126,-0.1229,-0.11,-0.0926,-0.0781,-0.0691,-0.0507,-0.047,-0.0341,-0.0224,-0.0262,-0.0257,-0.0313,-0.0284,-0.0284,-0.0143,-0.0191,-0.0162,-0.0293,-0.0081,-0.0079,-0.0121,-0.0117,-0.0113,0,-0.1237,-0.1183,-0.1189,-0.1148,-0.1109,-0.0959,-0.0845,-0.0724,-0.0597,-0.0386,-0.0286,-0.0121,0.0048,0.017,0.0144,0.0145,-0.0055,0.0224,0.0108,0.0038,-0.0165,-0.0367,-0.0399,0.0361,0.0368,0.0374,0.0379,0,-0.09,-0.0987,-0.0939,-0.0918,-0.0839,-0.0716,-0.0574,-0.0481,-0.035,-0.0235,-0.0026,0.0123,0.036,0.0551,0.0584,0.053,0.0234,0.0347,0.0271,0.0343,0.0158,0.0056,-0.0011,0.0432,0.0427,0.0423,0.042,0.0418,-0.0668,-0.0611,-0.0659,-0.0597,-0.0556,-0.0466,-0.0327,-0.025,-0.0088,0.0086,0.0158,0.0391,0.0731,0.0892,0.0824,0.0843,0.0632,0.0782,0.0652,0.047,0.0473,0.055,0.0894,0.0892,0.0889,0.0888,0.0886,0,-0.0355,-0.034,-0.0294,-0.0264,-0.0186,-0.0232,-0.0113,-0.0004,0.014,0.0233,0.0385,0.0694,0.104,0.1166,0.1322,0.1189,0.0974,0.1056,0.0836,0.0802,0.0936,0.0961,0.1345,0.1345,0.1345,0.1345,0.1345,0.1345,-0.0179,-0.0058,-0.0072,0.0103,0.0104,0.0247,0.0309,0.036,0.0435,0.0569,0.0674,0.0763,0.1015,0.138,0.1435,0.1334,0.1012,0.099,0.0785,0.088,0.0842,0.0806,0.081,0.1155,0.1155,0.0735,0.0732,0.0729]},{"header":{"parameterUnit":"m.s-1","parameterCategory":2,"la1":30.2991,"la2":30.254,"lo1":-89.0895,"lo2":-89.0444,"dy":0.0017,"dx":0.0017,"nx":28,"ny":28,"refTime":"2023-07-28T03:00:00:Z","depth":"0","parameterNumber":3,"parameterNumberName":"V-component_of_CURRENTS"},"data":[0,0,0,0,0,0,0,0,0,0,0,0,0,0,0,0,0,0,0,0,0,0,0,0,0,0,0,0,0,0,0,0,0,0,0,0,0,0,0,0,0,0,0,0,0,0,0,0,0,0,0,0,0,0,0,0,0,0,-0.0257,-0.0256,0,-0.014,-0.0138,-0.0136,-0.0013,-0.0011,-0.001,-0.0009,0.0126,0.0128,0.0131,0,0,0,0,0,0,0,0,0,0,0,0,0,-0.0208,-0.021,-0.0257,-0.0256,-0.0255,-0.014,-0.0138,-0.0136,-0.0013,-0.0011,-0.001,-0.0008,0.0125,0.0128,0.0131,0,0,0,0,0,0,0,0,0,0,0,0,0,-0.017,-0.021,-0.0258,-0.0183,-0.0176,-0.014,-0.0138,-0.0135,-0.0013,-0.0011,-0.0009,-0.0007,0.0124,0.0128,0.0131,0.0115,0,0,0.0142,0.0144,0,0,0,0,0,0,0,0,-0.0172,-0.0171,-0.0195,-0.0189,-0.018,-0.0093,-0.0071,-0.0052,-0.0014,-0.007,-0.0009,-0.0007,0.005,0.006,0.0084,0.0121,0.0127,0.0143,0.0145,0.0146,0.0147,0,0,0,0,0,0,0,-0.0175,-0.0174,-0.0206,-0.0195,-0.0185,-0.0099,-0.0092,-0.0066,-0.0019,-0.0065,-0.0057,-0.0052,0.0055,0.008,0.0088,0.0129,0.0142,0.0146,0.0148,0.0149,0.0161,0.0159,0,0,0,0,0,0,-0.0211,-0.0179,-0.021,-0.0203,-0.0176,-0.0102,-0.0095,-0.0119,-0.0019,-0.0003,-0.0054,-0.0047,0.0073,0.0084,0.0093,0.0136,0.0146,0.015,0.0152,0.0162,0.016,0.0158,0,0,0,0,0,0,-0.0211,-0.0216,-0.0215,-0.0189,-0.0183,-0.0107,-0.0134,-0.0118,-0.0081,-0.0011,0.0006,-0.0032,0.0075,0.0088,0.0106,0.014,0.0151,0.0154,0.0165,0.0162,0.0159,0.0184,0,0,0,0,0,0,-0.021,-0.0217,-0.0242,-0.0193,-0.0187,-0.0185,-0.0136,-0.0117,-0.0084,-0.0073,0.0012,0.0026,0.0078,0.01,0.011,0.0145,0.0157,0.0167,0.0163,0.016,0.0186,0.0183,0.018,0,0,0,0,0,-0.0209,-0.0249,-0.0245,-0.0247,-0.0226,-0.0185,-0.0173,-0.0107,-0.0085,-0.0066,-0.0031,0.0024,0.0086,0.0101,0.0113,0.015,0.0169,0.0164,0.016,0.0187,0.0183,0.018,0,0,0,0,0,0,-0.0244,-0.024,-0.0233,-0.0273,-0.0231,-0.0166,-0.0147,-0.0115,-0.0071,-0.0063,0.0001,0.0017,0.004,0.0066,0.0082,0.0132,0.0136,0.0134,0.0152,0.0149,0.0146,0.0188,0.016,0,0,0,0,0,-0.027,-0.0296,-0.0265,-0.0294,-0.0276,-0.0217,-0.0193,-0.0153,-0.0112,-0.0087,-0.0041,-0.0003,0.0028,0.0065,0.0082,0.0116,0.015,0.014,0.0137,0.0135,0.0169,0.0268,0.028,0.0145,0.0145,0.0145,0,0,-0.0294,-0.0294,-0.031,-0.0301,-0.0262,-0.0229,-0.0194,-0.0162,-0.0129,-0.0085,-0.004,-0.0022,0.0021,0.0059,0.0075,0.0097,0.0166,0.013,0.0129,0.0165,0.0265,0.028,0.0292,0.0142,0.0142,0.0143,0,0,-0.032,-0.035,-0.0355,-0.0325,-0.0281,-0.0247,-0.0242,-0.0186,-0.0149,-0.0131,-0.0087,-0.0044,-0.0018,0.0059,0.0091,0.0077,0.0128,0.006,0.0121,0.0215,0.023,0.0243,0.0215,0.0226,0.0086,0.0086,0.0086,0,-0.0339,-0.0351,-0.0346,-0.0322,-0.0286,-0.0257,-0.0219,-0.0192,-0.014,-0.0093,-0.0123,-0.0032,-0.0002,0.0109,0.01,0.0086,0.0097,0.0144,0.0221,0.0235,0.0249,0.0218,0.023,0.0087,0.0087,0.0087,0.0087,0,-0.0344,-0.0345,-0.0341,-0.0307,-0.0272,-0.0242,-0.0198,-0.0172,-0.0154,-0.0102,-0.0031,-0.0001,0.0082,0.0079,0.0088,0.0205,0.0159,0.0192,0.0251,0.0266,0.0227,0.024,0.0088,0.0088,0.0087,0.0087,0,0,-0.0388,-0.035,-0.0346,-0.03,-0.0254,-0.0213,-0.0179,-0.0097,-0.0012,-0.0016,0.0102,0.0123,0.0161,0.0197,0.0226,0.0306,0.0367,0.0291,0.0295,0.0296,0.0488,0.044,0.0448,0.0429,0.0433,0.0436,0.0392,0,-0.0373,-0.0343,-0.0313,-0.0244,-0.021,-0.0155,-0.0088,-0.0016,0.0034,0.0141,0.018,0.0291,0.0201,0.028,0.0323,0.0367,0.0414,0.037,0.0445,0.0445,0.0434,0.0469,0.0597,0.0572,0.0405,0.0407,0.0408,0,-0.0361,-0.0343,-0.0297,-0.0169,-0.0136,-0.0085,0.0062,0.0132,0.0264,0.0316,0.0392,0.0445,0.0525,0.0479,0.0522,0.0493,0.0492,0.0506,0.0507,0.0484,0.0426,0.0543,0.0601,0.0555,0.0428,0.0426,0.0425,0,-0.0376,-0.0302,-0.0265,-0.0236,-0.0116,-0.0048,0.0043,0.0185,0.0329,0.046,0.0592,0.0624,0.0723,0.0694,0.063,0.0616,0.067,0.0667,0.0608,0.0598,0.0737,0.0735,0.0811,0.0757,0.0757,0.0757,0.0757,0,-0.0359,-0.0306,-0.0268,-0.0242,-0.0123,-0.0024,0.0165,0.0247,0.0476,0.0687,0.0704,0.0887,0.0807,0.0816,0.0696,0.0639,0.0706,0.0632,0.0625,0.073,0.0727,0.0717,0.0674,0.0755,0.0755,0.0756,0.0756,0,-0.0342,-0.034,-0.0284,-0.0187,-0.0135,-0.0047,0.0248,0.0425,0.0604,0.0876,0.0955,0.1122,0.1114,0.0956,0.0929,0.0786,0.0726,0.0689,0.0733,0.0734,0.0637,0.0589,0.0667,0.0733,0.0635,0.0634,0.0634,0,-0.0301,-0.03,-0.0265,-0.0227,-0.0174,-0.0005,0.0168,0.0426,0.0651,0.1035,0.1197,0.1322,0.1413,0.1245,0.1028,0.0778,0.0754,0.0759,0.0794,0.0667,0.0611,0.0584,0.0634,0.0935,0.0936,0.0938,0.0939,0,-0.0215,-0.0255,-0.0232,-0.0192,-0.0066,0.014,0.0404,0.0605,0.0953,0.119,0.1532,0.1661,0.1588,0.1461,0.1122,0.0977,0.0802,0.0784,0.0726,0.0918,0.0836,0.0883,0.081,0.0952,0.0951,0.095,0.0949,0.0949,-0.0138,-0.0145,-0.0158,-0.0092,0.0029,0.0284,0.0493,0.0789,0.114,0.1527,0.1694,0.1907,0.1833,0.1441,0.1195,0.0911,0.0919,0.0893,0.0851,0.0835,0.0919,0.079,0.0884,0.0882,0.0881,0.088,0.0879,0,-0.0003,-0.0035,-0.0008,0.0081,0.0236,0.0309,0.0676,0.0902,0.1245,0.1552,0.182,0.2059,0.1835,0.1579,0.1195,0.1016,0.1014,0.0935,0.0987,0.1045,0.1019,0.1054,0.1106,0.1106,0.1106,0.1106,0.1106,0.1106,0.0066,0.0095,0.0077,0.0282,0.0362,0.0653,0.0853,0.1102,0.1348,0.1736,0.1995,0.2203,0.2136,0.145,0.1037,0.0992,0.0997,0.0974,0.0912,0.0911,0.0905,0.09,0.0925,0.0949,0.0949,0.1069,0.107,0.107]}],[{"header":{"parameterUnit":"m.s-1","parameterCategory":2,"la1":30.2991,"la2":30.254,"lo1":-89.0895,"lo2":-89.0444,"dy":0.0017,"dx":0.0017,"nx":28,"ny":28,"refTime":"2023-07-28T03:00:00:Z","depth":"2","parameterNumber":2,"parameterNumberName":"U-component_of_CURRENTS"},"data":[0,0,0,0,0,0,0,0,0,0,0,0,0,0,0,0,0,0,0,0,0,0,0,0,0,0,0,0,0,0,0,0,0,0,0,0,0,0,0,0,0,0,0,0,0,0,0,0,0,0,0,0,0,0,0,0,0,0,-0.2005,-0.2007,0,-0.2082,-0.2082,-0.2082,-0.2164,-0.2167,-0.2169,-0.2171,-0.2292,-0.2293,-0.2294,0,0,0,0,0,0,0,0,0,0,0,0,0,-0.1808,-0.1811,-0.2005,-0.2007,-0.2009,-0.2082,-0.2082,-0.2082,-0.2164,-0.2167,-0.2169,-0.2172,-0.2292,-0.2293,-0.2294,0,0,0,0,0,0,0,0,0,0,0,0,0,-0.1878,-0.1812,-0.2005,-0.2068,-0.2076,-0.2082,-0.2082,-0.2082,-0.2163,-0.2167,-0.217,-0.2173,-0.2291,-0.2293,-0.2294,-0.2235,0,0,-0.2299,-0.23,0,0,0,0,0,0,0,0,-0.1874,-0.1884,-0.2057,-0.2064,-0.2072,-0.2128,-0.2057,-0.2139,-0.2162,-0.2117,-0.2171,-0.2175,-0.2247,-0.2252,-0.224,-0.224,-0.2245,-0.2299,-0.23,-0.2301,-0.2301,0,0,0,0,0,0,0,-0.187,-0.1881,-0.2023,-0.2059,-0.2069,-0.2052,-0.2066,-0.2071,-0.2152,-0.2121,-0.213,-0.2157,-0.225,-0.2239,-0.2244,-0.2247,-0.2299,-0.2301,-0.2302,-0.2302,-0.2266,-0.2264,0,0,0,0,0,0,-0.1888,-0.1877,-0.2021,-0.2027,-0.1994,-0.2054,-0.2069,-0.2096,-0.2152,-0.2167,-0.2155,-0.2161,-0.2234,-0.2242,-0.2249,-0.2284,-0.2301,-0.2302,-0.2303,-0.2268,-0.2266,-0.2264,0,0,0,0,0,0,-0.1883,-0.19,-0.2018,-0.1963,-0.1979,-0.2056,-0.2085,-0.2096,-0.212,-0.2179,-0.2193,-0.2172,-0.2237,-0.2247,-0.2302,-0.2286,-0.2303,-0.2305,-0.227,-0.2267,-0.2265,-0.2289,0,0,0,0,0,0,-0.1877,-0.1897,-0.1916,-0.1964,-0.1983,-0.2059,-0.2084,-0.2096,-0.2135,-0.2145,-0.2198,-0.2211,-0.2241,-0.23,-0.2304,-0.2289,-0.2306,-0.2273,-0.2269,-0.2265,-0.2291,-0.2288,-0.2285,0,0,0,0,0,-0.1869,-0.1863,-0.1916,-0.1934,-0.2008,-0.2061,-0.2067,-0.2124,-0.2133,-0.2152,-0.2195,-0.2211,-0.2278,-0.2301,-0.2306,-0.2291,-0.2274,-0.227,-0.2266,-0.2292,-0.2288,-0.2285,0,0,0,0,0,0,-0.1784,-0.1874,-0.1932,-0.1957,-0.2035,-0.2081,-0.208,-0.2125,-0.2162,-0.2171,-0.2214,-0.2231,-0.2255,-0.2262,-0.2286,-0.226,-0.2265,-0.2262,-0.2283,-0.228,-0.2277,-0.2267,-0.2307,0,0,0,0,0,-0.1779,-0.1815,-0.1905,-0.1942,-0.1956,-0.2019,-0.2043,-0.21,-0.2145,-0.2164,-0.2216,-0.2233,-0.2226,-0.2254,-0.2257,-0.2266,-0.2231,-0.2244,-0.2241,-0.2239,-0.2228,-0.2195,-0.2189,-0.2249,-0.2249,-0.2249,0,0,-0.1776,-0.1821,-0.1853,-0.1929,-0.1963,-0.2008,-0.2038,-0.2083,-0.2135,-0.2168,-0.223,-0.223,-0.2222,-0.2233,-0.2241,-0.2254,-0.219,-0.2233,-0.2232,-0.2222,-0.219,-0.2185,-0.218,-0.2246,-0.2247,-0.2247,0,0,-0.1748,-0.18,-0.1808,-0.1863,-0.1942,-0.1996,-0.2018,-0.2092,-0.2127,-0.2193,-0.2201,-0.221,-0.2237,-0.2231,-0.222,-0.2193,-0.2167,-0.2175,-0.2175,-0.2144,-0.214,-0.2136,-0.2043,-0.203,-0.2187,-0.2187,-0.2187,0,-0.1749,-0.1774,-0.1823,-0.1838,-0.1895,-0.1992,-0.2031,-0.2069,-0.2176,-0.2197,-0.2224,-0.2217,-0.2226,-0.22,-0.2189,-0.219,-0.2147,-0.2204,-0.2144,-0.214,-0.2135,-0.2041,-0.2027,-0.2188,-0.2187,-0.2187,-0.2187,0,-0.1709,-0.1762,-0.1755,-0.1837,-0.1898,-0.1946,-0.2037,-0.2101,-0.2159,-0.2205,-0.2214,-0.2218,-0.2213,-0.2197,-0.219,-0.2142,-0.211,-0.214,-0.2166,-0.2131,-0.2032,-0.2018,-0.2189,-0.2188,-0.2188,-0.2188,0,0,-0.168,-0.1725,-0.1741,-0.1796,-0.1908,-0.1966,-0.2035,-0.2125,-0.2159,-0.2224,-0.2235,-0.2209,-0.2201,-0.2182,-0.2162,-0.2138,-0.2055,-0.2126,-0.2124,-0.2052,-0.1935,-0.182,-0.1792,-0.209,-0.2088,-0.2087,-0.1865,0,-0.1664,-0.1684,-0.1726,-0.183,-0.1868,-0.1982,-0.2047,-0.2144,-0.2199,-0.2234,-0.2211,-0.2204,-0.2194,-0.2177,-0.2148,-0.2091,-0.2023,-0.2109,-0.1961,-0.1954,-0.1875,-0.1774,-0.1691,-0.1479,-0.185,-0.1847,-0.1846,0,-0.1645,-0.1664,-0.1723,-0.1851,-0.1873,-0.1966,-0.21,-0.2161,-0.2213,-0.223,-0.2218,-0.2201,-0.2148,-0.2146,-0.2023,-0.2082,-0.1987,-0.1939,-0.193,-0.1807,-0.1813,-0.1578,-0.1438,-0.182,-0.1822,-0.1824,-0.1826,0,-0.1635,-0.17,-0.1755,-0.1798,-0.1925,-0.1997,-0.208,-0.2173,-0.2189,-0.2215,-0.2205,-0.2168,-0.211,-0.2045,-0.1922,-0.1977,-0.1764,-0.1837,-0.1623,-0.1613,-0.1499,-0.1481,-0.1705,-0.1705,-0.1706,-0.1707,-0.1707,0,-0.1651,-0.1711,-0.1761,-0.1809,-0.1894,-0.1992,-0.2077,-0.2145,-0.2172,-0.215,-0.2183,-0.2114,-0.2083,-0.1964,-0.1889,-0.1676,-0.1726,-0.1573,-0.1543,-0.1497,-0.1482,-0.1767,-0.1778,-0.1698,-0.17,-0.1702,-0.1703,0,-0.1676,-0.1716,-0.1768,-0.1857,-0.1907,-0.1969,-0.2071,-0.2085,-0.2138,-0.2098,-0.209,-0.2038,-0.1885,-0.1806,-0.1649,-0.1585,-0.1441,-0.1337,-0.1245,-0.1209,-0.1317,-0.1331,-0.1106,-0.11,-0.1095,-0.1091,-0.1087,0,-0.1684,-0.1704,-0.1766,-0.1797,-0.1857,-0.1944,-0.199,-0.2069,-0.2049,-0.202,-0.1962,-0.1829,-0.1664,-0.1401,-0.1279,-0.1089,-0.1195,-0.0912,-0.101,-0.1259,-0.1253,-0.1275,-0.1295,-0.0847,-0.0841,-0.0837,-0.0834,0,-0.1659,-0.1673,-0.1688,-0.174,-0.1808,-0.1829,-0.1889,-0.1859,-0.1891,-0.1821,-0.1654,-0.1527,-0.1306,-0.1061,-0.0862,-0.077,-0.0965,-0.0816,-0.1078,-0.1025,-0.1,-0.1,-0.1031,-0.0795,-0.0799,-0.0802,-0.0804,-0.0806,-0.1604,-0.1591,-0.1605,-0.1644,-0.1704,-0.1683,-0.1633,-0.1609,-0.1509,-0.1351,-0.1337,-0.1114,-0.1056,-0.0684,-0.0556,-0.0493,-0.0594,-0.0599,-0.0619,-0.0641,-0.0665,-0.0634,-0.036,-0.0361,-0.0362,-0.0363,-0.0364,0,-0.1499,-0.1512,-0.1513,-0.1535,-0.1502,-0.1609,-0.1528,-0.1391,-0.1175,-0.1068,-0.0883,-0.069,-0.0487,-0.0451,-0.0282,-0.0221,-0.0285,-0.0214,-0.0334,-0.0369,-0.0402,-0.0422,-0.0047,-0.0046,-0.0046,-0.0045,0,0,-0.1475,-0.142,-0.1394,-0.1321,-0.1348,-0.127,-0.1181,-0.096,-0.0813,-0.0565,-0.0456,-0.0424,-0.0426,-0.0252,-0.0186,-0.0091,-0.0234,-0.0063,-0.0316,-0.0493,-0.0525,-0.0615,-0.0682,0,0,0,0,0]},{"header":{"parameterUnit":"m.s-1","parameterCategory":2,"la1":30.2991,"la2":30.254,"lo1":-89.0895,"lo2":-89.0444,"dy":0.0017,"dx":0.0017,"nx":28,"ny":28,"refTime":"2023-07-28T03:00:00:Z","depth":"2","parameterNumber":3,"parameterNumberName":"V-component_of_CURRENTS"},"data":[0,0,0,0,0,0,0,0,0,0,0,0,0,0,0,0,0,0,0,0,0,0,0,0,0,0,0,0,0,0,0,0,0,0,0,0,0,0,0,0,0,0,0,0,0,0,0,0,0,0,0,0,0,0,0,0,0,0,-0.0636,-0.0634,0,-0.0467,-0.0465,-0.0463,-0.0297,-0.0295,-0.0293,-0.029,0.0028,0.0034,0.004,0,0,0,0,0,0,0,0,0,0,0,0,0,-0.079,-0.0788,-0.0636,-0.0634,-0.0631,-0.0467,-0.0465,-0.0463,-0.0298,-0.0295,-0.0292,-0.0289,0.0026,0.0033,0.0041,0,0,0,0,0,0,0,0,0,0,0,0,0,-0.0684,-0.0788,-0.0636,-0.0528,-0.0516,-0.0467,-0.0465,-0.0462,-0.0298,-0.0295,-0.0291,-0.0288,0.0023,0.0033,0.0042,0.003,0,0,0.0071,0.0075,0,0,0,0,0,0,0,0,-0.069,-0.0679,-0.0546,-0.0535,-0.0522,-0.0398,-0.0402,-0.0289,-0.0299,-0.0383,-0.029,-0.0286,-0.0102,-0.0082,-0.0063,0.0045,0.0059,0.0072,0.0077,0.0081,0.0084,0,0,0,0,0,0,0,-0.0698,-0.0685,-0.0571,-0.0544,-0.0529,-0.0478,-0.046,-0.0381,-0.0263,-0.0375,-0.0363,-0.0342,-0.0094,-0.0073,-0.0054,0.0064,0.0071,0.008,0.0086,0.0089,0.05,0.0505,0,0,0,0,0,0,-0.072,-0.0692,-0.0576,-0.0565,-0.0597,-0.0479,-0.0458,-0.0443,-0.0266,-0.0237,-0.0345,-0.0335,-0.009,-0.0065,-0.0042,0.0159,0.0081,0.009,0.0096,0.0495,0.0502,0.0507,0,0,0,0,0,0,-0.0725,-0.0712,-0.0583,-0.0623,-0.0603,-0.048,-0.0464,-0.0441,-0.0375,-0.0245,-0.0212,-0.0297,-0.0087,-0.0055,0.0075,0.0166,0.0094,0.0103,0.0489,0.0497,0.0504,0.0431,0,0,0,0,0,0,-0.073,-0.0715,-0.0714,-0.0625,-0.0601,-0.0533,-0.0466,-0.044,-0.037,-0.0354,-0.0194,-0.0163,-0.0081,0.006,0.0084,0.0177,0.011,0.0482,0.0493,0.0502,0.0426,0.0435,0.0442,0,0,0,0,0,-0.0736,-0.0738,-0.0715,-0.0701,-0.0603,-0.0533,-0.0516,-0.0418,-0.0371,-0.0346,-0.0225,-0.0166,0.0144,0.0068,0.0097,0.0195,0.0478,0.049,0.0501,0.0423,0.0433,0.0442,0,0,0,0,0,0,-0.0787,-0.0719,-0.0692,-0.0668,-0.0601,-0.0503,-0.0481,-0.0413,-0.0306,-0.0279,-0.0151,-0.0112,0.0064,0.0133,0.0048,0.0358,0.0342,0.0359,0.0274,0.0284,0.0292,0.0217,0.0118,0,0,0,0,0,-0.0809,-0.0795,-0.0717,-0.0694,-0.0675,-0.058,-0.054,-0.0469,-0.0365,-0.0314,-0.0183,-0.0028,0.0125,0.0199,0.034,0.045,0.0419,0.0558,0.0566,0.0571,0.054,0.0511,0.0508,0.0546,0.0546,0.0546,0,0,-0.0821,-0.0782,-0.0771,-0.0706,-0.0657,-0.0603,-0.0546,-0.0481,-0.0384,-0.0298,-0.0125,-0.0002,0.0167,0.033,0.0417,0.0396,0.0557,0.0586,0.0588,0.0554,0.0522,0.0516,0.0511,0.0554,0.0553,0.0551,0,0,-0.083,-0.0812,-0.0801,-0.0756,-0.0681,-0.0617,-0.0594,-0.0474,-0.0374,-0.0219,-0.01,0.0031,0.0282,0.0385,0.0479,0.0604,0.0607,0.072,0.0676,0.0649,0.0641,0.0633,0.0596,0.0586,0.0709,0.0709,0.0709,0,-0.0841,-0.0819,-0.0783,-0.0753,-0.071,-0.062,-0.0577,-0.0469,-0.0296,-0.0221,-0.0148,0.0166,0.0305,0.0454,0.0538,0.0613,0.0591,0.0606,0.0642,0.0635,0.0628,0.0591,0.0581,0.0707,0.0707,0.0708,0.0708,0,-0.0835,-0.0814,-0.0807,-0.0739,-0.0685,-0.0644,-0.0509,-0.0399,-0.0262,-0.0157,0.0041,0.019,0.036,0.0469,0.0555,0.0625,0.0623,0.0646,0.0574,0.0616,0.058,0.057,0.0704,0.0705,0.0706,0.0706,0,0,-0.0857,-0.0815,-0.0808,-0.0786,-0.0681,-0.0634,-0.0481,-0.0342,-0.0255,-0.0067,0.0028,0.0299,0.0334,0.044,0.0543,0.0537,0.0505,0.0578,0.0578,0.0463,0.0426,0.0429,0.0418,0.0516,0.0514,0.0513,0.0416,0,-0.0858,-0.0836,-0.0787,-0.0725,-0.0707,-0.0587,-0.0458,-0.0313,-0.0168,-0.0052,0.0084,0.023,0.0341,0.041,0.0421,0.0502,0.0477,0.0528,0.0471,0.0469,0.0399,0.0406,0.0408,0.0323,0.0406,0.0404,0.0403,0,-0.0855,-0.0847,-0.0813,-0.0736,-0.0714,-0.0635,-0.0473,-0.0347,-0.0177,-0.0058,0.004,0.0132,0.0213,0.0277,0.0326,0.0353,0.0385,0.0411,0.0407,0.0415,0.0452,0.0305,0.0301,0.0386,0.0387,0.0388,0.0389,0,-0.09,-0.0853,-0.0835,-0.0811,-0.0701,-0.062,-0.0528,-0.035,-0.0251,-0.0103,-0.0061,0.004,0.009,0.0126,0.024,0.0273,0.0236,0.028,0.0287,0.0287,0.028,0.0283,0.025,0.025,0.025,0.0251,0.0251,0,-0.0915,-0.0897,-0.0855,-0.0841,-0.0774,-0.0675,-0.0562,-0.043,-0.0307,-0.0254,-0.0105,-0.0089,0.0051,0.0071,0.0157,0.0191,0.0168,0.0253,0.0254,0.0266,0.0269,0.0327,0.0337,0.0247,0.0248,0.0249,0.0249,0,-0.094,-0.0924,-0.0906,-0.0831,-0.079,-0.0735,-0.0585,-0.0527,-0.0389,-0.0338,-0.0307,-0.0197,-0.0153,-0.0045,0.0012,0.0083,0.012,0.0132,0.014,0.0144,0.02,0.0209,0.0099,0.0098,0.0097,0.0097,0.0096,0,-0.0946,-0.0949,-0.0913,-0.0899,-0.0853,-0.076,-0.0694,-0.0545,-0.0512,-0.0421,-0.0446,-0.0382,-0.0337,-0.0245,-0.0095,0.0008,0.0053,0.0052,0.0123,0.0168,0.018,0.0191,0.0201,0.0089,0.0089,0.0088,0.0088,0,-0.0961,-0.0956,-0.0951,-0.0937,-0.0891,-0.0844,-0.0767,-0.0757,-0.0635,-0.0603,-0.0608,-0.058,-0.0456,-0.0314,-0.0141,-0.0082,0.0047,0.0044,0.0058,0.0142,0.0155,0.0169,0.018,0.0084,0.0084,0.0084,0.0085,0.0085,-0.0969,-0.098,-0.0987,-0.0963,-0.0936,-0.0933,-0.0892,-0.0862,-0.0826,-0.0755,-0.0757,-0.0645,-0.051,-0.0237,-0.0123,0.0016,-0.0006,0.0049,0.0051,0.0054,0.0084,0.0097,0.002,0.002,0.002,0.002,0.002,0,-0.0985,-0.0998,-0.1003,-0.0994,-0.0996,-0.0953,-0.0943,-0.09,-0.0884,-0.0808,-0.0748,-0.0568,-0.0407,-0.0231,-0.0015,0.0069,0.0093,0.0089,0.012,0.012,0.0121,0.0159,0.0112,0.0113,0.0114,0.0115,0,0,-0.0995,-0.1016,-0.1027,-0.1041,-0.1027,-0.1008,-0.1003,-0.0943,-0.0866,-0.0758,-0.0632,-0.0527,-0.0368,-0.0184,-0.0077,0.0046,0.0066,0.0052,-0.0042,-0.002,-0.0018,0.0065,0.0118,0,0,0,0,0]}],[{"header":{"parameterUnit":"m.s-1","parameterCategory":2,"la1":30.2991,"la2":30.254,"lo1":-89.0895,"lo2":-89.0444,"dy":0.0017,"dx":0.0017,"nx":28,"ny":28,"refTime":"2023-07-28T03:00:00:Z","depth":"4","parameterNumber":2,"parameterNumberName":"U-component_of_CURRENTS"},"data":[0,0,0,0,0,0,0,0,0,0,0,0,0,0,0,0,0,0,0,0,0,0,0,0,0,0,0,0,0,0,0,0,0,0,0,0,0,0,0,0,0,0,0,0,0,0,0,0,0,0,0,0,0,0,0,0,0,0,-0.0773,-0.0774,0,-0.084,-0.0841,-0.0842,-0.0886,-0.0886,-0.0886,-0.0886,-0.0914,-0.0915,-0.0915,0,0,0,0,0,0,0,0,0,0,0,0,0,-0.0709,-0.071,-0.0773,-0.0774,-0.0775,-0.084,-0.0841,-0.0842,-0.0886,-0.0886,-0.0886,-0.0886,-0.0914,-0.0915,-0.0915,0,0,0,0,0,0,0,0,0,0,0,0,0,-0.0754,-0.0711,-0.0773,-0.0803,-0.0807,-0.084,-0.0841,-0.0843,-0.0886,-0.0886,-0.0886,-0.0887,-0.0914,-0.0915,-0.0916,-0.0915,0,0,-0.0918,-0.0919,0,0,0,0,0,0,0,0,-0.0751,-0.0756,-0.0798,-0.0801,-0.0805,-0.0854,-0.0829,-0.0865,-0.0886,-0.0857,-0.0886,-0.0887,-0.089,-0.0893,-0.0907,-0.0917,-0.0918,-0.0918,-0.0919,-0.0919,-0.0919,0,0,0,0,0,0,0,-0.0748,-0.0754,-0.0801,-0.0799,-0.0803,-0.0823,-0.083,-0.0837,-0.0871,-0.0859,-0.0862,-0.0868,-0.0891,-0.0906,-0.0907,-0.0918,-0.0918,-0.0919,-0.092,-0.092,-0.1001,-0.1002,0,0,0,0,0,0,-0.0736,-0.0751,-0.0799,-0.0803,-0.0777,-0.0824,-0.0831,-0.0839,-0.0872,-0.0877,-0.0868,-0.087,-0.0904,-0.0906,-0.0908,-0.0952,-0.0919,-0.092,-0.092,-0.0999,-0.1001,-0.1003,0,0,0,0,0,0,-0.0735,-0.074,-0.0796,-0.0777,-0.0786,-0.0824,-0.0833,-0.084,-0.0861,-0.0879,-0.0883,-0.0882,-0.0904,-0.0907,-0.0941,-0.0952,-0.092,-0.0921,-0.0997,-0.1,-0.1002,-0.1013,0,0,0,0,0,0,-0.0732,-0.0739,-0.0748,-0.0776,-0.0786,-0.0815,-0.0833,-0.0841,-0.0864,-0.0867,-0.0892,-0.0895,-0.0905,-0.094,-0.0942,-0.0953,-0.0922,-0.0995,-0.0998,-0.1001,-0.101,-0.1015,-0.1019,0,0,0,0,0,-0.073,-0.0745,-0.0748,-0.0754,-0.0795,-0.0814,-0.0821,-0.0851,-0.0864,-0.0871,-0.0907,-0.0895,-0.096,-0.0942,-0.0944,-0.0955,-0.0994,-0.0997,-0.1001,-0.1008,-0.1014,-0.1019,0,0,0,0,0,0,-0.0723,-0.0751,-0.0755,-0.0778,-0.079,-0.0821,-0.0842,-0.0852,-0.0886,-0.09,-0.0913,-0.0918,-0.0952,-0.0958,-0.0936,-0.0992,-0.0976,-0.098,-0.0981,-0.0986,-0.0991,-0.0973,-0.0923,0,0,0,0,0,-0.0723,-0.0739,-0.076,-0.0774,-0.0787,-0.0812,-0.0828,-0.0844,-0.0874,-0.089,-0.0907,-0.0938,-0.0968,-0.098,-0.1003,-0.1027,-0.1023,-0.1039,-0.1044,-0.1047,-0.1037,-0.1068,-0.1073,-0.1015,-0.1015,-0.1015,0,0,-0.0724,-0.0739,-0.075,-0.0773,-0.0794,-0.0815,-0.0824,-0.0851,-0.0869,-0.0886,-0.0925,-0.0949,-0.0979,-0.1016,-0.1031,-0.1021,-0.1061,-0.1052,-0.1055,-0.1042,-0.1072,-0.1078,-0.1082,-0.1018,-0.1017,-0.1017,0,0,-0.0727,-0.0749,-0.0762,-0.0779,-0.0806,-0.0824,-0.0829,-0.0862,-0.0881,-0.0917,-0.0942,-0.0976,-0.1014,-0.1039,-0.1058,-0.1099,-0.1085,-0.1111,-0.1115,-0.1146,-0.115,-0.1153,-0.1143,-0.1145,-0.1112,-0.1112,-0.1112,0,-0.0723,-0.0743,-0.0767,-0.0784,-0.08,-0.0826,-0.0841,-0.0869,-0.0905,-0.0916,-0.0933,-0.1003,-0.1026,-0.1068,-0.1093,-0.1105,-0.111,-0.1088,-0.1149,-0.1153,-0.1156,-0.1144,-0.1147,-0.1113,-0.1113,-0.1113,-0.1113,0,-0.0733,-0.0754,-0.0768,-0.0797,-0.0815,-0.0836,-0.087,-0.089,-0.0917,-0.0937,-0.0982,-0.1026,-0.106,-0.1083,-0.1103,-0.1143,-0.1133,-0.1149,-0.1127,-0.1162,-0.1148,-0.1151,-0.1115,-0.1114,-0.1114,-0.1114,0,0,-0.071,-0.0762,-0.0767,-0.0778,-0.0825,-0.0836,-0.0872,-0.0898,-0.0914,-0.0961,-0.098,-0.1051,-0.1065,-0.1087,-0.1116,-0.115,-0.1181,-0.1163,-0.1164,-0.1136,-0.1223,-0.109,-0.108,-0.1214,-0.1215,-0.1216,-0.1197,0,-0.0706,-0.0727,-0.0762,-0.0788,-0.0803,-0.0842,-0.0867,-0.0896,-0.0928,-0.0954,-0.1003,-0.1039,-0.1071,-0.109,-0.1131,-0.1177,-0.1192,-0.1183,-0.1206,-0.1205,-0.1071,-0.108,-0.1219,-0.1198,-0.1199,-0.1199,-0.12,0,-0.0699,-0.0715,-0.0732,-0.0772,-0.0784,-0.0806,-0.0837,-0.0865,-0.0911,-0.0935,-0.0978,-0.1012,-0.1069,-0.1092,-0.1169,-0.1165,-0.1187,-0.1217,-0.1217,-0.1088,-0.1078,-0.1162,-0.1204,-0.1204,-0.1204,-0.1203,-0.1203,0,-0.0648,-0.0694,-0.0701,-0.0718,-0.0769,-0.0782,-0.081,-0.0851,-0.0866,-0.0919,-0.0926,-0.1003,-0.1031,-0.1096,-0.115,-0.1169,-0.1216,-0.1249,-0.1138,-0.1128,-0.1249,-0.1245,-0.128,-0.128,-0.128,-0.128,-0.1281,0,-0.0621,-0.0636,-0.0679,-0.0686,-0.0695,-0.0746,-0.0759,-0.0794,-0.0834,-0.0839,-0.091,-0.0921,-0.1039,-0.1075,-0.1135,-0.1125,-0.12,-0.1121,-0.1115,-0.1253,-0.125,-0.1249,-0.1246,-0.128,-0.128,-0.128,-0.128,0,-0.0574,-0.0601,-0.0616,-0.0661,-0.0671,-0.0679,-0.0721,-0.0728,-0.0773,-0.0779,-0.0791,-0.0865,-0.0911,-0.0988,-0.1079,-0.1071,-0.1101,-0.1073,-0.1176,-0.1179,-0.0996,-0.0994,-0.0953,-0.0948,-0.0944,-0.0941,-0.0938,0,-0.0559,-0.0559,-0.0585,-0.0585,-0.0609,-0.0627,-0.0633,-0.0686,-0.0688,-0.0733,-0.0723,-0.0769,-0.0811,-0.0831,-0.0929,-0.0982,-0.0985,-0.0968,-0.1015,-0.0965,-0.0964,-0.0968,-0.0972,-0.0931,-0.093,-0.0929,-0.0928,0,-0.0537,-0.0541,-0.0548,-0.0538,-0.0542,-0.054,-0.0554,-0.0541,-0.0589,-0.0629,-0.0634,-0.0658,-0.0684,-0.0766,-0.0782,-0.0837,-0.0973,-0.0926,-0.0936,-0.098,-0.0938,-0.0942,-0.095,-0.0914,-0.0916,-0.0917,-0.0918,0,-0.0521,-0.0512,-0.0509,-0.0495,-0.0486,-0.0454,-0.047,-0.0471,-0.048,-0.0528,-0.0528,-0.0598,-0.0667,-0.0685,-0.0722,-0.0736,-0.075,-0.0744,-0.0764,-0.0781,-0.0735,-0.0657,-0.0525,0,0,0,0,0,-0.0505,-0.0483,-0.0471,-0.0437,-0.0419,-0.0411,-0.0416,-0.0436,-0.0465,-0.0443,-0.0484,-0.051,-0.0544,-0.0595,-0.0583,-0.0649,-0.0754,-0.0628,-0.0757,-0.0835,-0.0851,-0.0815,0,0,0,0,0,0,-0.049,-0.0478,-0.0457,-0.0387,-0.0352,-0.0325,-0.0323,-0.0346,-0.0343,-0.0388,-0.0428,-0.0455,-0.0523,-0.0551,-0.057,-0.058,-0.0641,-0.0672,-0.0669,-0.0825,-0.084,-0.0854,-0.0822,0,0,0,0,0]},{"header":{"parameterUnit":"m.s-1","parameterCategory":2,"la1":30.2991,"la2":30.254,"lo1":-89.0895,"lo2":-89.0444,"dy":0.0017,"dx":0.0017,"nx":28,"ny":28,"refTime":"2023-07-28T03:00:00:Z","depth":"4","parameterNumber":3,"parameterNumberName":"V-component_of_CURRENTS"},"data":[0,0,0,0,0,0,0,0,0,0,0,0,0,0,0,0,0,0,0,0,0,0,0,0,0,0,0,0,0,0,0,0,0,0,0,0,0,0,0,0,0,0,0,0,0,0,0,0,0,0,0,0,0,0,0,0,0,0,-0.0577,-0.0578,0,-0.0581,-0.0581,-0.058,-0.058,-0.058,-0.058,-0.058,-0.0609,-0.0609,-0.061,0,0,0,0,0,0,0,0,0,0,0,0,0,-0.057,-0.057,-0.0577,-0.0578,-0.0578,-0.0581,-0.0581,-0.058,-0.058,-0.058,-0.058,-0.058,-0.0608,-0.0609,-0.061,0,0,0,0,0,0,0,0,0,0,0,0,0,-0.0571,-0.057,-0.0577,-0.0579,-0.058,-0.0581,-0.0581,-0.058,-0.058,-0.058,-0.058,-0.058,-0.0608,-0.0609,-0.061,-0.0612,0,0,-0.0613,-0.0613,0,0,0,0,0,0,0,0,-0.0571,-0.0571,-0.0579,-0.0579,-0.058,-0.0582,-0.0588,-0.0593,-0.058,-0.0578,-0.058,-0.058,-0.0603,-0.0604,-0.0602,-0.0614,-0.0615,-0.0613,-0.0614,-0.0614,-0.0614,0,0,0,0,0,0,0,-0.0571,-0.0571,-0.0577,-0.0579,-0.058,-0.058,-0.058,-0.0589,-0.0588,-0.0578,-0.0578,-0.0582,-0.0603,-0.0601,-0.0602,-0.0615,-0.0613,-0.0614,-0.0614,-0.0615,-0.0632,-0.0632,0,0,0,0,0,0,-0.0574,-0.0571,-0.0577,-0.0577,-0.0578,-0.058,-0.058,-0.0579,-0.0588,-0.0589,-0.0582,-0.0582,-0.0599,-0.0601,-0.0603,-0.0637,-0.0614,-0.0615,-0.0616,-0.0632,-0.0632,-0.0632,0,0,0,0,0,0,-0.0574,-0.0575,-0.0577,-0.0576,-0.0576,-0.058,-0.0579,-0.0579,-0.0586,-0.0591,-0.0592,-0.0589,-0.0599,-0.0602,-0.0622,-0.0637,-0.0615,-0.0616,-0.0632,-0.0632,-0.0632,-0.0686,0,0,0,0,0,0,-0.0574,-0.0574,-0.0581,-0.0576,-0.0577,-0.0591,-0.0579,-0.0579,-0.0588,-0.0589,-0.0598,-0.06,-0.0599,-0.0621,-0.0623,-0.0638,-0.0617,-0.0632,-0.0632,-0.0632,-0.0684,-0.0688,-0.0691,0,0,0,0,0,-0.0573,-0.058,-0.0582,-0.0583,-0.0584,-0.0592,-0.0592,-0.0594,-0.0589,-0.0599,-0.0602,-0.06,-0.062,-0.0622,-0.0625,-0.0641,-0.0633,-0.0632,-0.0632,-0.0683,-0.0687,-0.0691,0,0,0,0,0,0,-0.0578,-0.0581,-0.0582,-0.0589,-0.0597,-0.0593,-0.0601,-0.06,-0.0608,-0.0609,-0.0609,-0.0612,-0.0632,-0.0624,-0.0626,-0.064,-0.0622,-0.0622,-0.066,-0.0663,-0.0666,-0.0677,-0.0618,0,0,0,0,0,-0.0583,-0.0591,-0.0594,-0.0601,-0.0605,-0.0604,-0.0609,-0.061,-0.0614,-0.0618,-0.0626,-0.0626,-0.063,-0.0639,-0.064,-0.0657,-0.0625,-0.0663,-0.0666,-0.0669,-0.0676,-0.0642,-0.0643,-0.0631,-0.0631,-0.0631,0,0,-0.0587,-0.059,-0.0595,-0.0604,-0.0606,-0.0618,-0.0607,-0.0617,-0.0629,-0.062,-0.0643,-0.0642,-0.0635,-0.0652,-0.0659,-0.0652,-0.065,-0.0668,-0.0671,-0.0677,-0.0642,-0.0643,-0.0644,-0.0631,-0.0631,-0.0631,0,0,-0.0596,-0.0601,-0.061,-0.0621,-0.0633,-0.0633,-0.0639,-0.0645,-0.0651,-0.0671,-0.0662,-0.068,-0.0683,-0.069,-0.0689,-0.071,-0.0666,-0.0696,-0.0729,-0.0695,-0.0696,-0.0697,-0.0639,-0.0634,-0.07,-0.07,-0.07,0,-0.0602,-0.0613,-0.0616,-0.063,-0.0644,-0.0642,-0.0659,-0.0663,-0.0677,-0.0692,-0.0685,-0.0701,-0.0704,-0.0725,-0.0729,-0.0722,-0.0675,-0.0721,-0.07,-0.07,-0.07,-0.0641,-0.0635,-0.0702,-0.0702,-0.0702,-0.0702,0,-0.0615,-0.0633,-0.064,-0.0658,-0.0673,-0.0688,-0.0698,-0.0713,-0.072,-0.0731,-0.0757,-0.0758,-0.0771,-0.0768,-0.0757,-0.0759,-0.0716,-0.0708,-0.0696,-0.0705,-0.0641,-0.0634,-0.0706,-0.0705,-0.0704,-0.0704,0,0,-0.0609,-0.0643,-0.0649,-0.067,-0.0692,-0.0706,-0.0729,-0.0756,-0.0782,-0.0791,-0.0823,-0.0832,-0.0835,-0.0833,-0.0822,-0.0798,-0.0756,-0.0751,-0.0748,-0.0702,-0.0648,-0.0614,-0.0602,-0.0734,-0.0733,-0.0733,-0.0598,0,-0.0621,-0.0656,-0.0671,-0.0712,-0.0731,-0.0748,-0.0775,-0.0801,-0.0822,-0.0852,-0.0855,-0.0881,-0.0856,-0.0868,-0.084,-0.0786,-0.0741,-0.0792,-0.0639,-0.0635,-0.0611,-0.0595,-0.0731,-0.0593,-0.0591,-0.059,-0.0589,0,-0.063,-0.0655,-0.0698,-0.0748,-0.076,-0.0787,-0.0838,-0.0862,-0.09,-0.0917,-0.0939,-0.0939,-0.0932,-0.09,-0.0803,-0.0827,-0.0739,-0.0683,-0.0676,-0.0625,-0.0588,-0.0584,-0.0575,-0.0576,-0.0577,-0.0578,-0.0579,0,-0.0629,-0.0676,-0.0714,-0.0731,-0.0784,-0.0813,-0.0841,-0.0888,-0.0918,-0.0962,-0.0986,-0.0977,-0.0969,-0.0878,-0.0771,-0.0777,-0.0635,-0.0632,-0.051,-0.0505,-0.0554,-0.0555,-0.0539,-0.0539,-0.054,-0.054,-0.054,0,-0.0635,-0.0671,-0.072,-0.0744,-0.0795,-0.0829,-0.0886,-0.0918,-0.0966,-0.0997,-0.1019,-0.1023,-0.0957,-0.0878,-0.077,-0.0614,-0.0628,-0.0509,-0.0473,-0.0575,-0.058,-0.0547,-0.055,-0.0535,-0.0536,-0.0537,-0.0538,0,-0.0635,-0.0667,-0.0715,-0.0775,-0.0797,-0.0835,-0.0904,-0.094,-0.0989,-0.1024,-0.1039,-0.1042,-0.0939,-0.0846,-0.0693,-0.061,-0.0474,-0.0403,-0.0502,-0.0475,-0.0361,-0.0368,-0.0266,-0.0263,-0.0261,-0.026,-0.0259,0,-0.0641,-0.0664,-0.0731,-0.0757,-0.079,-0.0846,-0.0881,-0.0943,-0.0971,-0.1018,-0.1019,-0.0971,-0.0943,-0.07,-0.0611,-0.0409,-0.0377,-0.0307,-0.0357,-0.036,-0.0335,-0.0345,-0.0354,-0.0256,-0.0255,-0.0255,-0.0254,0,-0.0649,-0.0675,-0.0708,-0.0756,-0.08,-0.0846,-0.0893,-0.091,-0.0964,-0.1012,-0.0975,-0.0905,-0.0787,-0.0659,-0.0505,-0.0363,-0.037,-0.0287,-0.0291,-0.0337,-0.0347,-0.0326,-0.0337,-0.0248,-0.0248,-0.0249,-0.0249,0,-0.0651,-0.0671,-0.0708,-0.0748,-0.0798,-0.0827,-0.0858,-0.0868,-0.0898,-0.0938,-0.091,-0.0836,-0.0806,-0.0629,-0.0486,-0.0357,-0.0329,-0.0295,-0.0297,-0.0303,-0.0371,-0.0393,-0.0271,0,0,0,0,0,-0.0644,-0.066,-0.0695,-0.0737,-0.0782,-0.0813,-0.0856,-0.088,-0.0919,-0.0874,-0.0893,-0.078,-0.0618,-0.0572,-0.0426,-0.0451,-0.031,-0.0279,-0.0272,-0.0211,-0.0219,-0.0292,0,0,0,0,0,0,-0.0639,-0.0669,-0.0683,-0.0716,-0.0741,-0.0791,-0.0816,-0.0842,-0.0811,-0.0837,-0.0742,-0.0741,-0.0574,-0.0687,-0.0421,-0.0393,-0.0367,-0.0219,-0.0216,-0.0207,-0.0214,-0.022,-0.0298,0,0,0,0,0]}]]